• In Lithuania
  • List of Countries
  • For 7 days
  • Water Temperature
  • Satellite Maps
  • Weather Map
  • Weather Widgets
  • user-avatar
    Login

    Hourly Weather Samos

    Today, 16 January, Tuesday

    Time Temperature Precipitation Wind Pressure Humidity
    00:00 +5°C° 0 mm 1 mps 727 mmHg 70%
    01:00 +5°C° 0 mm 1 mps 726 mmHg 70%
    02:00 +5°C° 0 mm 2 mps 726 mmHg 67%
    03:00 +5°C° 0 mm 2 mps 726 mmHg 68%
    04:00 +4°C° 0 mm 3 mps 726 mmHg 70%
    05:00 +4°C° 0 mm 3 mps 725 mmHg 72%
    06:00 +4°C° 0.2 mm 3 mps 725 mmHg 74%
    07:00 +4°C° 0.2 mm 4 mps 725 mmHg 77%
    08:00 +3°C° 0 mm 5 mps 724 mmHg 79%
    09:00 +5°C° 0.7 mm 5 mps 724 mmHg 81%
    10:00 +4°C° 0.7 mm 6 mps 724 mmHg 82%
    11:00 +5°C° 0.7 mm 6 mps 724 mmHg 84%
    12:00 +5°C° 1 mm 6 mps 723 mmHg 85%
    13:00 +7°C° 1 mm 6 mps 723 mmHg 86%
    14:00 +7°C° 1 mm 5 mps 722 mmHg 87%
    15:00 +7°C° 0.9 mm 5 mps 722 mmHg 89%
    16:00 +7°C° 0.9 mm 5 mps 721 mmHg 91%
    17:00 +6°C° 0.9 mm 4 mps 721 mmHg 93%
    18:00 +6°C° 0.5 mm 4 mps 721 mmHg 93%
    19:00 +6°C° 0.5 mm 4 mps 721 mmHg 94%
    20:00 +5°C° 0.5 mm 3 mps 720 mmHg 95%
    21:00 +5°C° 0.1 mm 3 mps 720 mmHg 95%
    22:00 +5°C° 0.1 mm 3 mps 720 mmHg 94%
    23:00 +5°C° 0.1 mm 3 mps 720 mmHg 94%

    Tomorrow, 17 January, Wednesday

    Time Temperature Precipitation Wind Pressure Humidity
    00:00 +4°C° 0 mm 3 mps 720 mmHg 94%
    01:00 +4°C° 0 mm 3 mps 719 mmHg 94%
    02:00 +4°C° 0 mm 3 mps 719 mmHg 94%
    03:00 +4°C° 0 mm 3 mps 719 mmHg 94%
    04:00 +4°C° 0 mm 3 mps 719 mmHg 94%
    05:00 +4°C° 0 mm 3 mps 718 mmHg 94%
    06:00 +4°C° 0 mm 3 mps 718 mmHg 94%
    07:00 +4°C° 0 mm 3 mps 718 mmHg 94%
    08:00 +4°C° 0 mm 4 mps 718 mmHg 93%
    09:00 +6°C° 0 mm 4 mps 718 mmHg 88%
    10:00 +8°C° 0 mm 4 mps 718 mmHg 82%
    11:00 +11°C° 0 mm 4 mps 718 mmHg 77%
    12:00 +10°C° 0 mm 5 mps 718 mmHg 74%
    13:00 +12°C° 0 mm 5 mps 717 mmHg 71%
    14:00 +13°C° 0 mm 6 mps 717 mmHg 68%
    15:00 +11°C° 0 mm 6 mps 716 mmHg 73%
    16:00 +10°C° 0 mm 6 mps 716 mmHg 78%
    17:00 +9°C° 0 mm 6 mps 715 mmHg 83%
    18:00 +8°C° 0 mm 7 mps 715 mmHg 86%
    19:00 +8°C° 0 mm 7 mps 715 mmHg 88%
    20:00 +8°C° 0 mm 7 mps 714 mmHg 90%
    21:00 +8°C° 0.1 mm 7 mps 714 mmHg 92%
    22:00 +7°C° 0.1 mm 8 mps 714 mmHg 93%
    23:00 +7°C° 0.1 mm 8 mps 714 mmHg 94%

    Day after tomorrow, 18 January, Thursday

    Time Temperature Precipitation Wind Pressure Humidity
    00:00 +8°C° 0.1 mm 9 mps 713 mmHg 93%
    01:00 +8°C° 0.1 mm 10 mps 712 mmHg 92%
    02:00 +8°C° 0.1 mm 11 mps 712 mmHg 91%
    03:00 +8°C° 0.5 mm 12 mps 712 mmHg 88%
    04:00 +8°C° 0.5 mm 12 mps 711 mmHg 85%
    05:00 +8°C° 0.5 mm 13 mps 711 mmHg 81%
    06:00 +7°C° 0.6 mm 13 mps 711 mmHg 81%
    07:00 +5°C° 0.6 mm 12 mps 712 mmHg 81%
    08:00 +4°C° 0.6 mm 12 mps 712 mmHg 81%
    09:00 +4°C° 0.3 mm 12 mps 713 mmHg 76%
    10:00 +3°C° 0.3 mm 13 mps 714 mmHg 71%
    11:00 +3°C° 0.3 mm 13 mps 715 mmHg 66%
    12:00 +3°C° 0.3 mm 13 mps 716 mmHg 60%
    13:00 +3°C° 0.3 mm 13 mps 716 mmHg 55%
    14:00 +3°C° 0.3 mm 13 mps 717 mmHg 49%
    15:00 +1°C° 0.1 mm 13 mps 718 mmHg 49%
    16:00 +2°C° 0.1 mm 12 mps 718 mmHg 50%
    17:00 0°C° 0.1 mm 12 mps 719 mmHg 51%
    18:00 -1°C° 0 mm 11 mps 720 mmHg 52%
    19:00 0°C° 0 mm 10 mps 721 mmHg 53%
    20:00 -1°C° 0 mm 9 mps 722 mmHg 53%
    21:00 -1°C° 0 mm 8 mps 722 mmHg 54%
    22:00 -2°C° 0 mm 7 mps 723 mmHg 54%
    23:00 -2°C° 0 mm 6 mps 723 mmHg 54%

    19 January, Friday

    Time Temperature Precipitation Wind Pressure Humidity
    00:00 -1°C° 0 mm 5 mps 723 mmHg 55%
    01:00 -2°C° 0 mm 4 mps 723 mmHg 55%
    02:00 -1°C° 0 mm 3 mps 723 mmHg 55%
    03:00 -1°C° 0 mm 3 mps 723 mmHg 56%
    04:00 -1°C° 0 mm 3 mps 723 mmHg 56%
    05:00 -1°C° 0 mm 2 mps 723 mmHg 57%
    06:00 -1°C° 0 mm 2 mps 723 mmHg 57%
    07:00 -1°C° 0 mm 3 mps 723 mmHg 57%
    08:00 -1°C° 0 mm 3 mps 723 mmHg 57%
    09:00 +2°C° 0 mm 3 mps 723 mmHg 52%
    10:00 +4°C° 0 mm 4 mps 723 mmHg 47%
    11:00 +6°C° 0 mm 4 mps 723 mmHg 42%
    12:00 +7°C° 0 mm 4 mps 723 mmHg 41%
    13:00 +8°C° 0 mm 4 mps 722 mmHg 40%
    14:00 +9°C° 0 mm 5 mps 722 mmHg 40%
    15:00 +8°C° 0 mm 5 mps 722 mmHg 45%
    16:00 +7°C° 0 mm 5 mps 722 mmHg 50%
    17:00 +6°C° 0 mm 5 mps 722 mmHg 55%
    18:00 +5°C° 0 mm 5 mps 722 mmHg 56%
    19:00 +5°C° 0 mm 4 mps 722 mmHg 58%
    20:00 +4°C° 0 mm 4 mps 722 mmHg 60%
    21:00 +4°C° 0 mm 4 mps 722 mmHg 64%
    22:00 +3°C° 0 mm 5 mps 722 mmHg 68%
    23:00 +3°C° 0 mm 5 mps 722 mmHg 72%

    20 January, Saturday

    Time Temperature Precipitation Wind Pressure Humidity
    00:00 +3°C° 0 mm 5 mps 722 mmHg 76%
    01:00 +3°C° 0 mm 5 mps 722 mmHg 79%
    02:00 +4°C° 0 mm 6 mps 722 mmHg 83%
    03:00 +4°C° 0.1 mm 6 mps 722 mmHg 85%
    04:00 +5°C° 0.1 mm 6 mps 722 mmHg 86%
    05:00 +5°C° 0.1 mm 6 mps 722 mmHg 88%
    06:00 +5°C° 0.1 mm 7 mps 722 mmHg 88%
    07:00 +5°C° 0.1 mm 7 mps 722 mmHg 88%
    08:00 +6°C° 0.1 mm 7 mps 722 mmHg 88%
    09:00 +7°C° 0.1 mm 8 mps 722 mmHg 83%
    10:00 +9°C° 0.1 mm 8 mps 722 mmHg 78%
    11:00 +10°C° 0.1 mm 8 mps 722 mmHg 73%
    12:00 +10°C° 0 mm 9 mps 721 mmHg 71%
    13:00 +11°C° 0 mm 9 mps 721 mmHg 69%
    14:00 +11°C° 0 mm 9 mps 720 mmHg 67%
    15:00 +11°C° 0 mm 10 mps 720 mmHg 72%
    16:00 +9°C° 0 mm 10 mps 720 mmHg 77%
    17:00 +8°C° 0 mm 10 mps 719 mmHg 82%
    18:00 +8°C° 0 mm 11 mps 719 mmHg 84%
    19:00 +7°C° 0 mm 11 mps 719 mmHg 87%
    20:00 +5°C° 0 mm 12 mps 719 mmHg 89%
    21:00 +5°C° 0 mm 12 mps 719 mmHg 89%
    22:00 +5°C° 0 mm 12 mps 718 mmHg 89%
    23:00 +5°C° 0 mm 13 mps 718 mmHg 89%

    21 January, Sunday

    Time Temperature Precipitation Wind Pressure Humidity
    00:00 +5°C° 0 mm 13 mps 717 mmHg 88%
    01:00 +5°C° 0 mm 14 mps 717 mmHg 88%
    02:00 +5°C° 0 mm 14 mps 716 mmHg 87%
    03:00 +5°C° 0.1 mm 15 mps 716 mmHg 87%
    04:00 +5°C° 0.1 mm 16 mps 715 mmHg 86%
    05:00 +5°C° 0.1 mm 16 mps 714 mmHg 86%
    06:00 +6°C° 0.6 mm 17 mps 713 mmHg 85%
    07:00 +6°C° 0.6 mm 17 mps 713 mmHg 84%
    08:00 +6°C° 0.6 mm 17 mps 712 mmHg 83%
    09:00 +7°C° 0.9 mm 18 mps 711 mmHg 80%
    10:00 +9°C° 0.9 mm 18 mps 711 mmHg 78%
    11:00 +10°C° 0.9 mm 19 mps 710 mmHg 75%
    12:00 +10°C° 0.8 mm 18 mps 709 mmHg 74%
    13:00 +10°C° 0.8 mm 17 mps 708 mmHg 74%
    14:00 +10°C° 0.8 mm 17 mps 708 mmHg 73%
    15:00 +9°C° 2.4 mm 16 mps 707 mmHg 77%
    16:00 +8°C° 2.4 mm 14 mps 707 mmHg 81%
    17:00 +8°C° 2.4 mm 13 mps 706 mmHg 85%
    18:00 +7°C° 1.6 mm 13 mps 706 mmHg 84%
    19:00 +7°C° 1.6 mm 12 mps 706 mmHg 84%
    20:00 +7°C° 1.6 mm 12 mps 706 mmHg 83%
    21:00 +6°C° 0.7 mm 11 mps 706 mmHg 85%
    22:00 +6°C° 0.7 mm 10 mps 707 mmHg 86%
    23:00 +6°C° 0.7 mm 9 mps 707 mmHg 88%
    Show more